Terug naar catalogus

SL-8 R/B

ActiefPO
NORAD 22889·ROCKET BODY·🇷🇺 Russia

Gelanceerd Nov 2, 1993 vanaf Plesetsk Cosmodrome

Loading…

Volgende Passages (komende 24 uur)

TLE

VersSource: Space-Track

Epoch: Sep 14, 2026, 14:14 UTC

1 22889U 93070B   26257.59312484  .00000077  00000-0  59963-4 0  9996
2 22889  82.9481 324.9061 0050945 121.8148 238.7985 13.78295724652391

Volg SL-8 R/B in realtime met AllMySat

Download on the App Store